This is the latest recevied weather packets stored in our database for station/object VE8SKI. If no packets are shown the sender has not sent any weather packets the latest 10 day(s).
| Time | Temp. | Humidity | Pressure | Rain* | Wind** | Luminosity | Snow |
|---|---|---|---|---|---|---|---|
| 1777820841 | -2.78° C | 82% | 1015.9 hPa | 0 mm | 2.24 m/s, 56° | - | - |
| 1777820541 | -2.78° C | 83% | 1015.8 hPa | 0 mm | 1.79 m/s, 66° | - | - |
| 1777820242 | -3.33° C | 84% | 1015.8 hPa | 0 mm | 1.34 m/s, 51° | - | - |
| 1777819939 | -3.33° C | 84% | 1015.7 hPa | 0 mm | 2.24 m/s, 39° | - | - |
| 1777819639 | -3.33° C | 84% | 1015.6 hPa | 0 mm | 2.24 m/s, 69° | - | - |
| 1777819340 | -3.33° C | 84% | 1015.5 hPa | 0 mm | 2.24 m/s, 55° | - | - |
| 1777819040 | -3.33° C | 84% | 1015.5 hPa | 0 mm | 1.34 m/s, 69° | - | - |
| 1777818740 | -3.33° C | 85% | 1015.5 hPa | 0 mm | 2.68 m/s, 70° | - | - |
| 1777818441 | -3.33° C | 85% | 1015.4 hPa | 0 mm | 1.79 m/s, 75° | - | - |
| 1777818138 | -3.33° C | 85% | 1015.4 hPa | 0 mm | 2.24 m/s, 59° | - | - |
| 1777817838 | -3.33° C | 84% | 1015.4 hPa | 0 mm | 2.68 m/s, 73° | - | - |
| 1777817539 | -3.33° C | 86% | 1015.2 hPa | 0 mm | 2.24 m/s, 97° | - | - |
| 1777817239 | -3.33° C | 85% | 1015.2 hPa | 0 mm | 2.68 m/s, 83° | - | - |
| 1777816939 | -3.33° C | 85% | 1015.2 hPa | 0 mm | 1.79 m/s, 98° | - | - |
| 1777816640 | -3.33° C | 85% | 1015.2 hPa | 0 mm | 1.79 m/s, 75° | - | - |
| 1777816337 | -3.33° C | 85% | 1015.1 hPa | 0 mm | 2.68 m/s, 91° | - | - |
| 1777816038 | -3.33° C | 85% | 1015.1 hPa | 0 mm | 2.24 m/s, 72° | - | - |
| 1777815738 | -3.33° C | 86% | 1015.1 hPa | 0 mm | 1.79 m/s, 70° | - | - |
| 1777815438 | -3.33° C | 87% | 1015 hPa | 0 mm | 2.24 m/s, 52° | - | - |
| 1777815138 | -3.33° C | 88% | 1015.1 hPa | 0 mm | 2.24 m/s, 87° | - | - |
| 1777814839 | -3.33° C | 88% | 1015 hPa | 0 mm | 1.79 m/s, 58° | - | - |
| 1777814536 | -3.33° C | 89% | 1015 hPa | 0 mm | 2.68 m/s, 84° | - | - |
| 1777814236 | -3.89° C | 89% | 1015 hPa | 0 mm | 2.24 m/s, 91° | - | - |
| 1777813936 | -3.89° C | 90% | 1014.9 hPa | 0 mm | 2.24 m/s, 72° | - | - |
| 1777813637 | -3.89° C | 90% | 1014.9 hPa | 0 mm | 2.68 m/s, 49° | - | - |
* Rain latest hour (hover to see other rain measurements)
** Current wind speed in m/s (hover to see current wind gust speed)